Weather History for KMKT - March, 2014

Change the Weather History Date:

Sunday, March 23, 2014

  Actual Average Record
Temperature  
Mean Temperature 18 °F -  
Max Temperature 26 °F 41 °F 71 °F (2003)
Min Temperature 10 °F 26 °F 10 °F (2014)
Degree Days  
Heating Degree Days 47    
Moisture  
Dew Point 7 °F    
Average Humidity 61    
Maximum Humidity 85    
Minimum Humidity 46    
Precipitation  
Precipitation 0.00 in - - ()
Sea Level Pressure  
Sea Level Pressure 30.45 in    
Wind  
Wind Speed 7 mph (NW)    
Max Wind Speed 15 mph    
Max Gust Speed 18 mph    
Visibility 10 miles    
Events      
Averages and records for this station are not official NWS values.
T = Trace of Precipitation, MM = Missing Value Source: NWS Daily Summary

Daily Weather History Graph

Daily Weather History Graph

Search for Another Location

Airport or City:

Trip Planner

Search our weather history database for the weather conditions in past years. The results will help you decide how hot, cold, wet, or windy it might be!

Date:

Astronomy

Mar. 23, 2014 Rise Set
Actual Time 7:13 AM CDT 7:31 PM CDT
Civil Twilight 6:44 AM CDT 8:00 PM CDT
Nautical Twilight 6:10 AM CDT 8:34 PM CDT
Astronomical Twilight 5:35 AM CDT 9:10 PM CDT
Moon 2:00 AM CDT (3/23) 11:44 AM CDT (3/23)
Length of Visible Light 13h 16m
Length of Day
12h 18m
Waning Gibbous, 54% of the Moon is Illuminated
Mar 23
Waning Gibbous
Mar 23
Last Quarter
Mar 30
New
Apr 7
First Quarter
Apr 15
Full

Hourly Weather History & Observations

Time (CDT) Temp. Windchill Dew Point Humidity Pressure Visibility Wind Dir Wind Speed Gust Speed Precip Events Conditions
12:15 AM 15.8 °F 3.4 °F 6.8 °F 68% 30.50 in 10.0 mi North 10.4 mph - N/A   Clear
12:35 AM 15.8 °F 2.7 °F 8.6 °F 73% 30.51 in 10.0 mi North 11.5 mph - N/A   Clear
12:55 AM 15.8 °F 2.7 °F 6.8 °F 68% 30.51 in 10.0 mi North 11.5 mph - N/A   Clear
1:15 AM 15.8 °F 0.9 °F 6.8 °F 68% 30.51 in 10.0 mi NNW 15.0 mph 18.4 mph N/A   Clear
1:35 AM 14.0 °F -0.2 °F 5.0 °F 67% 30.51 in 10.0 mi NNW 12.7 mph - N/A   Clear
1:55 AM 14.0 °F -0.2 °F 5.0 °F 67% 30.52 in 10.0 mi North 12.7 mph 17.3 mph N/A   Clear
2:15 AM 14.0 °F -0.2 °F 3.2 °F 62% 30.52 in 10.0 mi North 12.7 mph - N/A   Clear
2:35 AM 12.2 °F -1.8 °F 3.2 °F 67% 30.52 in 10.0 mi North 11.5 mph - N/A   Clear
2:55 AM 12.2 °F -1.0 °F 3.2 °F 67% 30.51 in 10.0 mi North 10.4 mph - N/A   Clear
3:15 AM 12.2 °F -1.0 °F 3.2 °F 67% 30.51 in 10.0 mi North 10.4 mph - N/A   Clear
3:35 AM 12.2 °F -1.0 °F 3.2 °F 67% 30.51 in 10.0 mi North 10.4 mph - N/A   Clear
3:55 AM 12.2 °F 0.7 °F 3.2 °F 67% 30.51 in 10.0 mi North 8.1 mph - N/A   Clear
4:15 AM 12.2 °F 0.7 °F 3.2 °F 67% 30.50 in 10.0 mi North 8.1 mph - N/A   Clear
4:35 AM 12.2 °F 2.9 °F 3.2 °F 67% 30.50 in 10.0 mi NNW 5.8 mph - N/A   Clear
4:55 AM 12.2 °F 4.3 °F 5.0 °F 73% 30.50 in 10.0 mi NW 4.6 mph - N/A   Clear
5:15 AM 12.2 °F 4.3 °F 3.2 °F 67% 30.50 in 10.0 mi NNW 4.6 mph - N/A   Clear
5:35 AM 12.2 °F 6.1 °F 3.2 °F 67% 30.50 in 10.0 mi NNW 3.5 mph - N/A   Clear
5:55 AM 10.4 °F 4.0 °F 3.2 °F 73% 30.51 in 10.0 mi NW 3.5 mph - N/A   Clear
6:15 AM 10.4 °F 4.0 °F 3.2 °F 73% 30.51 in 10.0 mi NW 3.5 mph - N/A   Clear
6:35 AM 10.4 °F - 3.2 °F 73% 30.51 in 10.0 mi Calm Calm - N/A   Clear
6:55 AM 10.4 °F - 3.2 °F 73% 30.51 in 10.0 mi Calm Calm - N/A   Clear
7:15 AM 10.4 °F - 6.8 °F 85% 30.51 in 10.0 mi Calm Calm - N/A   Clear
7:35 AM 10.4 °F - 6.8 °F 85% 30.51 in 10.0 mi Calm Calm - N/A   Clear
7:55 AM 10.4 °F - 6.8 °F 85% 30.51 in 10.0 mi Calm Calm - N/A   Clear
8:15 AM 12.2 °F - 6.8 °F 79% 30.52 in 10.0 mi Calm Calm - N/A   Clear
8:35 AM 12.2 °F 4.3 °F 6.8 °F 79% 30.52 in 10.0 mi NW 4.6 mph - N/A   Clear
8:55 AM 14.0 °F 6.5 °F 6.8 °F 73% 30.52 in 10.0 mi WNW 4.6 mph - N/A   Clear
9:15 AM 15.8 °F 7.2 °F 5.0 °F 62% 30.51 in 10.0 mi WNW 5.8 mph - N/A   Clear
9:35 AM 15.8 °F 8.6 °F 6.8 °F 68% 30.51 in 10.0 mi WNW 4.6 mph - N/A   Clear
9:55 AM 15.8 °F 8.6 °F 6.8 °F 68% 30.51 in 10.0 mi WNW 4.6 mph - N/A   Mostly Cloudy
10:15 AM 17.6 °F 10.7 °F 6.8 °F 63% 30.51 in 10.0 mi WNW 4.6 mph - N/A   Overcast
10:35 AM 17.6 °F 5.7 °F 6.8 °F 63% 30.51 in 10.0 mi NW 10.4 mph - N/A   Overcast
10:55 AM 17.6 °F 8.2 °F 5.0 °F 58% 30.50 in 10.0 mi NW 6.9 mph - N/A   Overcast
11:15 AM 19.4 °F 14.3 °F 6.8 °F 58% 30.49 in 10.0 mi WNW 3.5 mph - N/A   Overcast
11:35 AM 19.4 °F 12.8 °F 6.8 °F 58% 30.49 in 10.0 mi WNW 4.6 mph - N/A   Overcast
11:55 AM 19.4 °F 9.5 °F 5.0 °F 54% 30.49 in 10.0 mi West 8.1 mph - N/A   Overcast
12:15 PM 19.4 °F 7.2 °F 6.8 °F 58% 30.48 in 10.0 mi NNW 11.5 mph - N/A   Overcast
12:35 PM 21.2 °F 10.1 °F 6.8 °F 54% 30.48 in 10.0 mi NNW 10.4 mph - N/A   Overcast
12:55 PM 21.2 °F 10.1 °F 6.8 °F 54% 30.47 in 10.0 mi NW 10.4 mph 16.1 mph N/A   Overcast
1:15 PM 21.2 °F 10.1 °F 6.8 °F 54% 30.47 in 10.0 mi WNW 10.4 mph 16.1 mph N/A   Overcast
1:35 PM 21.2 °F 10.1 °F 6.8 °F 54% 30.46 in 10.0 mi West 10.4 mph - N/A   Overcast
1:55 PM 21.2 °F 10.9 °F 6.8 °F 54% 30.45 in 10.0 mi West 9.2 mph - N/A   Overcast
2:15 PM 23.0 °F 15.8 °F 8.6 °F 54% 30.44 in 10.0 mi NW 5.8 mph - N/A   Overcast
2:35 PM 24.8 °F 14.0 °F 8.6 °F 50% 30.43 in 10.0 mi West 11.5 mph - N/A   Overcast
2:55 PM 24.8 °F 15.3 °F 6.8 °F 46% 30.43 in 10.0 mi West 9.2 mph - N/A   Mostly Cloudy
3:15 PM 23.0 °F 12.4 °F 8.6 °F 54% 30.42 in 10.0 mi WNW 10.4 mph - N/A   Scattered Clouds
3:35 PM 24.8 °F 16.1 °F 8.6 °F 50% 30.41 in 10.0 mi West 8.1 mph - N/A   Mostly Cloudy
3:55 PM 24.8 °F 16.9 °F 8.6 °F 50% 30.40 in 10.0 mi WNW 6.9 mph - N/A   Scattered Clouds
4:15 PM 26.6 °F 18.2 °F 8.6 °F 47% 30.39 in 10.0 mi West 8.1 mph - N/A   Mostly Cloudy
4:35 PM 26.6 °F 18.2 °F 8.6 °F 47% 30.38 in 10.0 mi WNW 8.1 mph - N/A   Overcast
4:55 PM 26.6 °F 18.2 °F 8.6 °F 47% 30.38 in 10.0 mi NNW 8.1 mph - N/A   Overcast
5:15 PM 26.6 °F 19.1 °F 8.6 °F 47% 30.37 in 10.0 mi NNW 6.9 mph - N/A   Overcast
5:35 PM 24.8 °F 20.5 °F 8.6 °F 50% 30.37 in 10.0 mi NNW 3.5 mph - N/A   Overcast
5:55 PM 26.6 °F 20.0 °F 8.6 °F 47% 30.36 in 10.0 mi NW 5.8 mph - N/A   Mostly Cloudy
6:15 PM 26.6 °F 17.5 °F 8.6 °F 47% 30.36 in 10.0 mi NNW 9.2 mph - N/A   Mostly Cloudy
6:35 PM 24.8 °F - 8.6 °F 50% 30.36 in 10.0 mi Calm Calm - N/A   Mostly Cloudy
6:55 PM 24.8 °F - 8.6 °F 50% 30.35 in 10.0 mi Calm Calm - N/A   Mostly Cloudy
7:15 PM 24.8 °F - 8.6 °F 50% 30.35 in 10.0 mi Calm Calm - N/A   Mostly Cloudy
7:35 PM 24.8 °F - 8.6 °F 50% 30.35 in 10.0 mi Calm Calm - N/A   Clear
7:55 PM 24.8 °F - 8.6 °F 50% 30.34 in 10.0 mi Calm Calm - N/A   Clear
8:15 PM 24.8 °F - 10.4 °F 54% 30.34 in 10.0 mi Calm Calm - N/A   Clear
8:35 PM 24.8 °F - 8.6 °F 50% 30.34 in 10.0 mi Calm Calm - N/A   Clear
8:55 PM 24.8 °F - 8.6 °F 50% 30.34 in 10.0 mi Calm Calm - N/A   Partly Cloudy
9:15 PM 24.8 °F - 10.4 °F 54% 30.34 in 10.0 mi Calm Calm - N/A   Mostly Cloudy
9:35 PM 24.8 °F - 12.2 °F 59% 30.35 in 10.0 mi Calm Calm - N/A   Scattered Clouds
9:55 PM 23.0 °F - 14.0 °F 68% 30.34 in 10.0 mi Calm Calm - N/A   Scattered Clouds
10:15 PM 24.8 °F - 12.2 °F 59% 30.34 in 10.0 mi Calm Calm - N/A   Mostly Cloudy
10:35 PM 24.8 °F - 14.0 °F 64% 30.35 in 10.0 mi Calm Calm - N/A   Scattered Clouds
10:55 PM 24.8 °F - 12.2 °F 59% 30.35 in 10.0 mi Calm Calm - N/A   Scattered Clouds
11:15 PM 23.0 °F 17.0 °F 14.0 °F 68% 30.35 in 10.0 mi South 4.6 mph - N/A   Partly Cloudy
11:35 PM 23.0 °F 15.8 °F 14.0 °F 68% 30.35 in 10.0 mi South 5.8 mph - N/A   Scattered Clouds
11:55 PM 23.0 °F 17.0 °F 15.8 °F 74% 30.35 in 10.0 mi SSW 4.6 mph - N/A   Partly Cloudy